Fort Irwin/Barstow, Bicycle L, CA

8:33 AM PDT on March 28, 2017 (GMT -0700)
Fort Irwin/Barstow, Bicycle L

Weather History for KBYS - May, 2014

Change the Weather History Date:

Sunday, May 25, 2014

  Actual Average (KDAG) Record (KDAG)
Temperature  
Mean Temperature 79 °F -  
Max Temperature 92 °F 91 °F 104 °F (1951)
Min Temperature 66 °F 63 °F 44 °F (1953)
Cooling Degree Days 14    
Growing Degree Days 29 (Base 50)    
Moisture  
Dew Point 37 °F    
Average Humidity 22    
Maximum Humidity 40    
Minimum Humidity 11    
Precipitation  
Precipitation 0.00 in - - ()
Sea Level Pressure  
Sea Level Pressure 29.77 in    
Wind  
Wind Speed 8 mph (SSE)    
Max Wind Speed 18 mph    
Max Gust Speed 21 mph    
Visibility 10 miles    
Events      
Averages and records for this station are not official NWS values.
T = Trace of Precipitation, MM = Missing Value Source: NWS Daily Summary

Daily Weather History Graph

Daily Weather History Graph

Search for Another Location

Airport or City:

Trip Planner

Search our weather history database for the weather conditions in past years. The results will help you decide how hot, cold, wet, or windy it might be!

Date:

Astronomy

May. 25, 2014 Rise Set
Actual Time 5:35 AM PDT 7:51 PM PDT
Civil Twilight 5:07 AM PDT 8:20 PM PDT
Nautical Twilight 4:31 AM PDT 8:55 PM PDT
Astronomical Twilight 3:53 AM PDT 9:34 PM PDT
Moon 3:35 AM PDT (5/25) 5:02 PM PDT (5/25)
Length of Visible Light 15h 13m
Length of Day
14h 15m
Waning Crescent, 10% of the Moon is Illuminated
May 25
Waning Crescent
May 28
New
Jun 5
First Quarter
Jun 12
Full
Jun 19
Last Quarter

Hourly Weather History & Observations

Time (PDT) Temp. Dew Point Humidity Pressure Visibility Wind Dir Wind Speed Gust Speed Precip Events Conditions
12:55 AM 72.7 °F 40.6 °F 31% 29.75 in 10.0 mi SW 18.4 mph - N/A   Clear
1:55 AM 71.1 °F 40.6 °F 33% 29.77 in 10.0 mi SW 3.5 mph - N/A   Clear
2:55 AM 70.0 °F 41.0 °F 35% 29.78 in 10.0 mi ESE 6.9 mph - N/A   Clear
3:55 AM 68.7 °F 41.4 °F 37% 29.79 in 10.0 mi SE 5.8 mph - N/A   Mostly Cloudy
4:55 AM 67.1 °F 41.0 °F 39% 29.81 in 10.0 mi South 2.3 mph - N/A   Clear
5:55 AM 66.9 °F 41.9 °F 40% 29.82 in 10.0 mi Calm Calm - N/A   Clear
6:55 AM 70.3 °F 40.6 °F 34% 29.83 in 10.0 mi NW 5.8 mph - N/A   Clear
8:55 AM 78.6 °F 41.2 °F 26% 29.84 in 10.0 mi Variable 3.5 mph - N/A   Clear
9:55 AM 82.0 °F 40.8 °F 23% 29.83 in 10.0 mi ENE 1.2 mph - N/A   Clear
10:55 AM 86.4 °F 38.5 °F 18% 29.82 in 10.0 mi Variable 4.6 mph - N/A   Clear
11:55 AM 86.2 °F 38.1 °F 18% 29.82 in 10.0 mi ESE 6.9 mph 12.7 mph N/A   Clear
12:55 PM 88.5 °F 37.4 °F 16% 29.80 in 10.0 mi East 8.1 mph 15.0 mph N/A   Clear
1:55 PM 90.9 °F 32.4 °F 12% 29.78 in 10.0 mi Variable 6.9 mph - N/A   Clear
2:55 PM 92.3 °F 30.0 °F 11% 29.76 in 10.0 mi NNE 11.5 mph 20.7 mph N/A   Clear
3:55 PM 91.9 °F 30.6 °F 11% 29.73 in 10.0 mi NE 12.7 mph 20.7 mph N/A   Clear
4:55 PM 92.5 °F 31.8 °F 12% 29.72 in 10.0 mi North 8.1 mph 18.4 mph N/A   Clear
5:55 PM 91.8 °F 31.3 °F 12% 29.71 in 10.0 mi Variable 4.6 mph - N/A   Clear
6:55 PM 90.5 °F 30.6 °F 12% 29.71 in 10.0 mi SE 9.2 mph 12.7 mph N/A   Clear
7:55 PM 88.5 °F 30.0 °F 12% 29.72 in 10.0 mi SE 9.2 mph - N/A   Clear
8:55 PM 86.5 °F 30.4 °F 13% 29.72 in 10.0 mi South 11.5 mph - N/A   Clear
9:55 PM 86.0 °F 32.4 °F 15% 29.73 in 10.0 mi SSW 8.1 mph - N/A   Clear
10:55 PM 83.3 °F 40.5 °F 22% 29.72 in 10.0 mi WSW 12.7 mph - N/A   Clear
11:55 PM 80.2 °F 41.4 °F 25% 29.73 in 10.0 mi SW 12.7 mph - N/A   Clear